This is the latest recevied weather packets stored in our database for station/object K9ZOG. If no packets are shown the sender has not sent any weather packets the latest 10 day(s).
| Time | Temp. | Humidity | Pressure | Rain* | Wind** | Luminosity | Snow |
|---|---|---|---|---|---|---|---|
| 1777913354 | 21.11° C | 41% | 1001.3 hPa | 0 mm | - | 90 W/m² | - |
| 1777913054 | 20.56° C | 40% | 1001.4 hPa | 0 mm | - | 92 W/m² | - |
| 1777912753 | 20.56° C | 41% | 1001.4 hPa | 0 mm | - | 90 W/m² | - |
| 1777912452 | 20.56° C | 43% | 1001.5 hPa | 0 mm | - | 173 W/m² | - |
| 1777912154 | 20.56° C | 43% | 1001.5 hPa | 0 mm | - | 113 W/m² | - |
| 1777911853 | 20.56° C | 43% | 1001.6 hPa | 0 mm | - | 188 W/m² | - |
| 1777911559 | 20.56° C | 43% | 1001.7 hPa | 0 mm | - | 122 W/m² | - |
| 1777911259 | 20° C | 44% | 1001.8 hPa | 0 mm | - | 469 W/m² | - |
| 1777910953 | 20° C | 44% | 1001.8 hPa | 0 mm | - | 870 W/m² | - |
| 1777910655 | 20° C | 43% | 1001.9 hPa | 0 mm | - | 869 W/m² | - |
| 1777910355 | 20° C | 42% | 1001.9 hPa | 0 mm | - | 857 W/m² | - |
| 1777910053 | 19.44° C | 42% | 1001.9 hPa | 0 mm | - | 849 W/m² | - |
| 1777909754 | 19.44° C | 42% | 1002 hPa | 0 mm | - | 839 W/m² | - |
| 1777909454 | 19.44° C | 44% | 1002.1 hPa | 0 mm | - | 829 W/m² | - |
| 1777909153 | 18.89° C | 46% | 1002.1 hPa | 0 mm | - | 667 W/m² | - |
| 1777908854 | 18.89° C | 47% | 1002.1 hPa | 0 mm | - | 752 W/m² | - |
| 1777908557 | 18.33° C | 50% | 1002.1 hPa | 0 mm | - | 794 W/m² | - |
| 1777908258 | 17.78° C | 52% | 1002.2 hPa | 0 mm | - | 784 W/m² | - |
| 1777907955 | 17.78° C | 52% | 1002.3 hPa | 0 mm | - | 774 W/m² | - |
| 1777907653 | 17.78° C | 52% | 1002.3 hPa | 0 mm | - | 762 W/m² | - |
| 1777907355 | 17.22° C | 56% | 1002.3 hPa | 0 mm | - | 746 W/m² | - |
| 1777907052 | 17.22° C | 54% | 1002.5 hPa | 0 mm | - | 731 W/m² | - |
| 1777906754 | 16.67° C | 55% | 1002.5 hPa | 0 mm | - | 718 W/m² | - |
| 1777906454 | 16.67° C | 55% | 1002.5 hPa | 0 mm | - | 706 W/m² | - |
| 1777906155 | 16.67° C | 55% | 1002.6 hPa | 0 mm | - | 694 W/m² | - |
* Rain latest hour (hover to see other rain measurements)
** Current wind speed in m/s (hover to see current wind gust speed)